Time,TemperatureF,DewpointF,PressureIn,WindDirection,WindDirectionDegrees,WindSpeedMPH,WindSpeedGustMPH,Humidity,HourlyPrecipIn,Conditions,Clouds,dailyrainin,SoftwareType,DateUTC
2013-03-26 19:41:00,29.8,23.5,30.02,SSW,205,0.0,17.0,77,0.00,,,0.00,Weather View 32 v70,2013-03-26 23:41:00,
2013-03-26 19:42:00,29.8,23.2,30.03,SSE,153,2.0,17.0,76,0.00,,,0.00,Weather View 32 v70,2013-03-26 23:42:00,
2013-03-26 19:43:00,29.8,23.2,30.03,SE,132,3.0,17.0,76,0.00,,,0.00,Weather View 32 v70,2013-03-26 23:43:00,
2013-03-26 19:48:00,29.6,23.6,30.03,ENE,70,0.0,17.0,78,0.00,,,0.00,Weather View 32 v70,2013-03-26 23:48:00,
2013-03-26 19:53:00,29.5,23.5,30.03,NNW,340,2.0,17.0,78,0.00,,,0.00,Weather View 32 v70,2013-03-26 23:53:00,
2013-03-26 19:58:00,29.4,23.4,30.03,North,9,0.0,17.0,78,0.00,,,0.00,Weather View 32 v70,2013-03-26 23:58:00,
2013-03-26 20:03:00,29.2,23.5,30.03,WNW,302,2.0,17.0,79,0.00,,,0.00,Weather View 32 v70,2013-03-27 00:03:00,
2013-03-26 20:08:00,29.2,23.5,30.03,WSW,255,3.0,17.0,79,0.00,,,0.00,Weather View 32 v70,2013-03-27 00:08:00,
2013-03-26 20:13:00,29.1,23.4,30.03,ESE,111,3.0,17.0,79,0.00,,,0.00,Weather View 32 v70,2013-03-27 00:13:00,
2013-03-26 20:18:00,29.1,23.4,30.03,North,5,5.0,17.0,79,0.00,,,0.00,Weather View 32 v70,2013-03-27 00:18:00,
2013-03-26 20:23:00,29.1,23.4,30.04,South,182,0.0,14.0,79,0.00,,,0.00,Weather View 32 v70,2013-03-27 00:23:00,
2013-03-26 20:28:00,29.1,23.4,30.04,WSW,253,1.0,13.0,79,0.00,,,0.00,Weather View 32 v70,2013-03-27 00:28:00,
2013-03-26 20:33:00,28.8,23.4,30.04,NNE,17,6.0,13.0,80,0.00,,,0.00,Weather View 32 v70,2013-03-27 00:33:00,
2013-03-26 20:38:00,28.7,23.3,30.04,ENE,75,1.0,14.0,80,0.00,,,0.00,Weather View 32 v70,2013-03-27 00:38:00,
2013-03-26 20:43:00,28.6,23.5,30.04,NNE,18,8.0,14.0,81,0.00,,,0.00,Weather View 32 v70,2013-03-27 00:43:00,
2013-03-26 20:48:00,28.7,23.6,30.04,NW,305,0.0,14.0,81,0.00,,,0.00,Weather View 32 v70,2013-03-27 00:48:00,
2013-03-26 20:53:00,28.5,23.1,30.04,North,6,7.0,14.0,80,0.00,,,0.00,Weather View 32 v70,2013-03-27 00:53:00,
2013-03-26 20:58:00,28.5,23.1,30.05,NNE,17,1.0,14.0,80,0.00,,,0.00,Weather View 32 v70,2013-03-27 00:58:00,
2013-03-26 21:03:00,28.5,23.1,30.05,NNE,26,2.0,14.0,80,0.00,,,0.00,Weather View 32 v70,2013-03-27 01:03:00,
2013-03-26 21:08:00,28.5,22.8,30.05,ENE,62,2.0,14.0,79,0.00,,,0.00,Weather View 32 v70,2013-03-27 01:08:00,
2013-03-26 21:13:00,28.5,22.8,30.05,SW,219,2.0,14.0,79,0.00,,,0.00,Weather View 32 v70,2013-03-27 01:13:00,
2013-03-26 21:18:00,28.6,22.9,30.05,ENE,67,3.0,14.0,79,0.00,,,0.00,Weather View 32 v70,2013-03-27 01:18:00,
2013-03-26 21:23:00,28.6,22.6,30.05,North,8,2.0,14.0,78,0.00,,,0.00,Weather View 32 v70,2013-03-27 01:23:00,
2013-03-26 21:28:00,28.7,22.7,30.06,SW,228,2.0,14.0,78,0.00,,,0.00,Weather View 32 v70,2013-03-27 01:28:00,
2013-03-26 21:33:00,28.7,22.7,30.06,NW,318,0.0,14.0,78,0.00,,,0.00,Weather View 32 v70,2013-03-27 01:33:00,
2013-03-26 21:38:00,28.7,22.7,30.06,WNW,290,0.0,12.0,78,0.00,,,0.00,Weather View 32 v70,2013-03-27 01:38:00,
2013-03-26 21:43:00,28.7,23.0,30.07,NNW,342,0.0,11.0,79,0.00,,,0.00,Weather View 32 v70,2013-03-27 01:43:00,
2013-03-26 21:48:00,28.6,22.6,30.07,NW,317,3.0,11.0,78,0.00,,,0.00,Weather View 32 v70,2013-03-27 01:48:00,
2013-03-26 21:53:00,28.7,23.0,30.07,NW,306,0.0,11.0,79,0.00,,,0.00,Weather View 32 v70,2013-03-27 01:53:00,
2013-03-26 21:58:00,28.7,23.0,30.07,North,11,4.0,11.0,79,0.00,,,0.00,Weather View 32 v70,2013-03-27 01:58:00,
2013-03-26 22:03:00,28.8,23.1,30.07,WNW,289,2.0,11.0,79,0.00,,,0.00,Weather View 32 v70,2013-03-27 02:03:00,
2013-03-26 22:08:00,28.7,23.0,30.08,WSW,250,5.0,10.0,79,0.00,,,0.00,Weather View 32 v70,2013-03-27 02:08:00,
2013-03-26 22:13:00,28.7,23.0,30.07,NW,307,0.0,8.0,79,0.00,,,0.00,Weather View 32 v70,2013-03-27 02:13:00,
2013-03-26 22:18:00,28.6,22.9,30.08,SSE,159,3.0,8.0,79,0.00,,,0.00,Weather View 32 v70,2013-03-27 02:18:00,
2013-03-26 22:23:00,28.6,23.2,30.07,North,356,2.0,12.0,80,0.00,,,0.00,Weather View 32 v70,2013-03-27 02:23:00,
2013-03-26 22:28:00,28.6,23.2,30.08,West,275,0.0,12.0,80,0.00,,,0.00,Weather View 32 v70,2013-03-27 02:28:00,
2013-03-26 22:33:00,28.6,22.9,30.08,North,350,2.0,12.0,79,0.00,,,0.00,Weather View 32 v70,2013-03-27 02:33:00,
2013-03-26 22:38:00,28.6,22.9,30.08,SSW,213,0.0,12.0,79,0.00,,,0.00,Weather View 32 v70,2013-03-27 02:38:00,
2013-03-26 22:43:00,28.6,22.9,30.08,SW,231,1.0,12.0,79,0.00,,,0.00,Weather View 32 v70,2013-03-27 02:43:00,
2013-03-26 22:48:00,28.6,23.2,30.07,NNW,347,2.0,12.0,80,0.00,,,0.00,Weather View 32 v70,2013-03-27 02:48:00,
2013-03-26 22:53:00,28.7,23.3,30.08,WSW,254,1.0,12.0,80,0.00,,,0.00,Weather View 32 v70,2013-03-27 02:53:00,
2013-03-26 22:58:00,28.7,23.3,30.07,West,272,1.0,12.0,80,0.00,,,0.00,Weather View 32 v70,2013-03-27 02:58:00,
2013-03-26 23:03:00,28.7,23.3,30.08,NW,312,0.0,12.0,80,0.00,,,0.00,Weather View 32 v70,2013-03-27 03:03:00,
2013-03-26 23:08:00,28.7,23.3,30.08,ENE,70,0.0,12.0,80,0.00,,,0.00,Weather View 32 v70,2013-03-27 03:08:00,
2013-03-26 23:13:00,28.7,23.3,30.07,NNW,344,5.0,12.0,80,0.00,,,0.00,Weather View 32 v70,2013-03-27 03:13:00,
2013-03-26 23:18:00,28.7,23.0,30.08,North,8,3.0,12.0,79,0.00,,,0.00,Weather View 32 v70,2013-03-27 03:18:00,
2013-03-26 23:23:00,28.8,23.4,30.07,NW,321,0.0,11.0,80,0.00,,,0.00,Weather View 32 v70,2013-03-27 03:23:00,
2013-03-26 23:28:00,28.8,23.4,30.08,NNE,33,2.0,11.0,80,0.00,,,0.00,Weather View 32 v70,2013-03-27 03:28:00,
2013-03-26 23:33:00,28.8,23.4,30.08,NNW,348,1.0,11.0,80,0.00,,,0.00,Weather View 32 v70,2013-03-27 03:33:00,
2013-03-26 23:38:00,28.7,23.0,30.08,NNE,16,5.0,11.0,79,0.00,,,0.00,Weather View 32 v70,2013-03-27 03:38:00,
2013-03-26 23:43:00,28.7,23.0,30.08,NE,38,3.0,11.0,79,0.00,,,0.00,Weather View 32 v70,2013-03-27 03:43:00,
2013-03-26 23:48:00,28.8,23.1,30.08,ESE,115,3.0,11.0,79,0.00,,,0.00,Weather View 32 v70,2013-03-27 03:48:00,
2013-03-26 23:54:00,28.8,23.4,30.09,NNE,23,0.0,11.0,80,0.00,,,0.00,Weather View 32 v70,2013-03-27 03:54:00,
2013-03-26 23:59:00,28.8,23.4,30.09,SW,215,2.0,11.0,80,0.00,,,0.00,Weather View 32 v70,2013-03-27 03:59:00,